2018 BARC St. Patricks Day Races

Bay City
2018-03-18
Starts on: 2018-03-18
Where: Bay City
Categories: 5K Run 8K Run 5K Walk Leprechaun Run
Description: Join us for the 45th running of the Bay Area Runners Club St. Patrick's Day Races presented by Catholic Federal Credit Union! With over 5,000 runners and walkers participating, this is the largest running event in the Great Lakes Bay Region.
Female 25-29 8k run
name bib rank time pace hometown
Kate Luginbill 473 1 00:36:21.540 07:19 Ann Arbor, MI
Dana Derosier 187 2 00:37:02.470 07:27 Midland, MI
Stacey Beem 50 3 00:37:32.860 07:34 Bay City, MI
Nicole Arsenault 22 4 00:37:59.270 07:39 Bay City, MI
Stephanie McMall 510 5 00:38:10.460 07:41 Saginaw, MI
Shelby Tafoya 744 6 00:38:36.300 07:46 Kalamazoo, MI
Maria Kaisler 378 7 00:38:58.500 07:51 Tipton, MI
Emily Doyle 198 8 00:39:11.100 07:53 Auburn, MI
Stephanie Ripper 632 9 00:39:11.560 07:53 Midland, MI
Meghan Godfrin 1094 10 00:39:13.420 07:54 Midland, MI
Kaitlyn Tobin 756 11 00:39:20.390 07:55 Midland, MI
keri christian 1413 12 00:40:04.980 08:04 bay city, MI
Lisa Thompson 1308 13 00:40:42.840 08:12 North Branch, MI
Jessica Dennison 184 14 00:40:47.430 08:13 Saginaw, MI
Danelle Harrington 1110 15 00:40:54.290 08:14 Saginaw, MI
Kellie Badalamenti 25 16 00:41:09.920 08:17 Lansing, MI
Nicole Kris 417 17 00:41:10.680 08:17 Saginaw, MI
Claire Kaisler 377 18 00:41:15.600 08:18 Clare, MI
Jenna Lynch 1161 19 00:41:45.310 08:24 Munger, MI
Megan McCoy 1170 20 00:42:16.720 08:31 Bay City, MI
Courtney Phillips 583 21 00:42:24.790 08:32 Holt, MI
Susie Chung 1037 22 00:42:25.130 08:32 Detroit, MI
Kaitlyn Sullivan 1297 23 00:42:54.480 08:38 Saginaw, MI
Emily Tamez 745 24 00:43:41.550 08:48 Essexville, MI
April Nowaczyk 552 25 00:43:45.390 08:48 Gagetown, MI
Heidi Grekowicz 275 26 00:44:03.750 08:52 Dewitt, MI
Brittney Maurer 493 27 00:44:14.950 08:54 Frankenmuth, MI
Alexandrea Siemen 690 28 00:44:21.870 08:56 Harbor Beach, MI
Catherine Bouts 1369 29 00:44:44.500 09:00 Bay City, MI
Shantelle Lange 431 30 00:44:56.880 09:03 Pigeon, MI
Marina Byer 115 31 00:45:24.830 09:08 Clio, MI
Breanna Barnett 37 32 00:46:13.940 09:18 Midland, MI
Claire Ferency 220 33 00:46:25.270 09:21 Ubly, MI
Lauren Fischer 228 34 00:46:27 09:21 Essexville, MI
Meredith Rosin 1249 35 00:46:39.810 09:24 Gladwin, MI
Shannon Reffitt 621 36 00:46:43.860 09:24 Cadillac, MI
Holly Errer 213 37 00:46:52.570 09:26 Livonia, MI
Kimberly Stolzman 726 38 00:46:53.760 09:26 Midland, MI
Ali Pajot 564 39 00:46:59.570 09:28 Pinconning, MI
Aiko Turmo 768 40 00:47:08.610 09:29 East Lansing, MI
Maryelizabeth Hentschel 318 41 00:47:33.900 09:34 Bay City, MI
Jadrianna Sobczak 705 42 00:47:35.150 09:35 Ann Arbor, MI
Stacey Saba 1257 43 00:47:59.700 09:40 Midland, MI
Irene Podkolzin 1223 44 00:48:04.160 09:40 Midland, MI
Alexandra Mozdzen 528 45 00:48:04.310 09:41 Saginaw, MI
Megan Barnard 36 46 00:48:12.450 09:42 Midland, MI
Rachel Letourneau 1404 47 00:48:38.600 09:47 East Lansing, MI
Jessica Robinson 1243 48 00:48:42.550 09:48 Midland, MI
Laura Reitz 622 49 00:48:43.990 09:49 Holly, MI
Samantha Becker 47 50 00:48:53.280 09:50 Midland, MI
Stacy Ledford 451 51 00:49:07.650 09:53 Lake Orion, MI
Kristen Foster 1085 52 00:49:09.120 09:54 Columbus, OH
Stacy Stremlow 730 53 00:49:11.490 09:54 Bay City, MI
Kaylyn Guettler 283 54 00:49:22.230 09:56 Midland, MI
Amra Bader 26 55 00:49:35.790 09:59 Saginaw, MI
Emily Smigiel 698 56 00:49:50.810 10:02 Unionville, MI
Jennifer Sasiela 1260 57 00:50:05.280 10:05 Rochester, MI
Brianna Cook 148 58 00:50:14.290 10:07 Bad Axe, MI
Rachel Van Wormer 777 59 00:50:21.270 10:08 Bay City, MI
Amber Ritchey 634 60 00:50:35.790 10:11 Bay City, MI
Jessika Sherrick 1269 61 00:51:16.690 10:19 Saginaw, MI
Halsey Ruhl 1254 62 00:51:23.150 10:21 Saginaw, MI
Brittany Minterfering 520 63 00:51:45.300 10:25 Harrison, MI
Taylor Tabaszewski 743 64 00:51:53.400 10:27 Montrose, MI
Misty Rogers 639 65 00:51:58.780 10:28 Pigeon, MI
Alexycya Colson 147 66 00:53:01.620 10:40 Midland, MI
Tara Welch 810 67 00:53:19.580 10:44 Bay City, MI
Ashley Ford 1084 68 00:53:36.660 10:47 Gladwin, MI
Katherine Thiel 752 69 00:53:53.310 10:51 Saint Louis, MI
Kristy Curpenski 1415 70 00:53:55.310 10:51 Bay City, MI
Alyssa McGrandy 506 71 00:54:07.760 10:54 Freeland, MI
Danielle Meeder 1176 72 00:54:59.410 11:04 Midland, MI
Kristin Bielby 58 73 00:55:10.610 11:06 Saginaw, MI
Katelyn Trepkowski 760 74 00:56:15.720 11:19 Saginaw, MI
Justine Parsons 1204 75 00:56:39.550 11:24 Midland, MI
Brenna Perz 1213 76 00:56:46.930 11:26 Owosso, MI
Grace Davis 175 77 00:57:08.710 11:30 Saginaw, MI
Laura Mitchell 521 78 00:58:07.410 11:42 Midland, MI
Dakota Rocha 1245 79 01:01:27.360 12:22 Saginaw, MI
Kayla Samolewski 656 80 01:02:11.910 12:31 Bay City, MI
Andrea Kotewa 409 81 01:02:23.950 12:33 Bay City, MI
Heather Bellows 51 82 01:03:26.720 12:46 Bay City, MI
Alyssa Stanard 717 83 01:03:33.820 12:48 Saginaw, MI
Liz Oberloier 1195 84 01:03:41.280 12:49 Saginaw, MI
Katie Corrion 150 85 01:04:28.230 12:58 Royal Oak, MI
Marina Skym 1276 86 01:05:26.610 13:10 Midland, MI
Lisa Stempek 1289 87 01:05:29.140 13:11 Pinconning, MI
Anne Krucinski 418 88 01:06:15.850 13:20 Columbus, MI
Casey Verbeke 784 89 01:06:18.730 13:21 Saint Clair, MI
Janelle Marshall 490 90 01:06:57.400 13:28 Saginaw, MI
Amanda Marshall 489 91 01:07:13.350 13:32 Pinckney, MI
Renee Czekai 168 92 01:08:01.320 13:41 Bay City, MI
Ashleigh Metiva 517 93 01:11:56.630 14:29 Freeland, MI
Stephanie Shaffer 687 94 01:12:45.350 14:38 Bay City, MI
Jenessa Murray 534 95 01:25:40.300 17:14 Bay City, MI